[[{"header":{"parameterUnit":"m.s-1","parameterCategory":1,"la1":30.2991,"la2":30.254,"lo1":-89.0895,"lo2":-89.0444,"dy":0.0017,"dx":0.0017,"nx":28,"ny":28,"refTime":"2024-03-11T09:00:00:Z","depth":0,"parameterNumber":2,"parameterNumberName":"U-component_of_WINDS"},"data":[0,0,0,0,0,0,0,0,0,0,0,0,0,0,0,0,0,0,0,0,0,0,0,0,0,0,0,0,0,0,0,0,0,0,0,0,0,0,0,0,0,0,0,0,0,0,0,0,0,0,0,0,0,0,0,0,0,0,0.4863,0.4863,0,0.4851,0.4851,0.4851,0.4859,0.4859,0.486,0.486,0.4845,0.4844,0.4843,0,0,0,0,0,0,0,0,0,0,0,0,0,0.4891,0.4891,0.4863,0.4863,0.4863,0.4851,0.4851,0.4851,0.4859,0.4859,0.486,0.486,0.4845,0.4844,0.4843,0,0,0,0,0,0,0,0,0,0,0,0,0,0.4879,0.489,0.4863,0.4866,0.4866,0.4851,0.4851,0.4851,0.4859,0.4859,0.486,0.486,0.4845,0.4844,0.4843,0.4825,0,0,0.484,0.4839,0,0,0,0,0,0,0,0,0.488,0.4878,0.4866,0.4866,0.4866,0.4857,0.4855,0.4842,0.4859,0.4861,0.486,0.4861,0.4848,0.4847,0.4843,0.4824,0.4824,0.484,0.4839,0.4838,0.4838,0,0,0,0,0,0,0,0.4881,0.4879,0.4859,0.4865,0.4865,0.4867,0.4865,0.4853,0.4852,0.4861,0.4862,0.486,0.4848,0.4844,0.4843,0.4823,0.484,0.4839,0.4838,0.4838,0.4789,0.4788,0,0,0,0,0,0,0.4881,0.4879,0.4859,0.4858,0.4874,0.4866,0.4864,0.4859,0.4852,0.4851,0.486,0.4861,0.4846,0.4844,0.4843,0.482,0.4838,0.4837,0.4837,0.4789,0.4789,0.4788,0,0,0,0,0,0,0.4882,0.488,0.4859,0.4869,0.4866,0.4865,0.4859,0.4859,0.4855,0.4851,0.4851,0.4856,0.4847,0.4844,0.483,0.482,0.4837,0.4836,0.479,0.4789,0.4788,0.4776,0,0,0,0,0,0,0.4883,0.488,0.4873,0.4869,0.4866,0.4847,0.4858,0.4858,0.4853,0.4854,0.4847,0.4847,0.4847,0.4831,0.4828,0.4819,0.4835,0.4791,0.479,0.4789,0.4778,0.4775,0.4773,0,0,0,0,0,0.4884,0.487,0.4873,0.487,0.4858,0.4847,0.4845,0.4846,0.4852,0.4846,0.4843,0.4847,0.4822,0.483,0.4827,0.4816,0.4791,0.479,0.4789,0.4779,0.4776,0.4773,0,0,0,0,0,0,0.4872,0.4869,0.4873,0.4857,0.4852,0.4848,0.4839,0.4843,0.4835,0.4836,0.4837,0.4836,0.482,0.4817,0.4826,0.4799,0.4808,0.4806,0.4801,0.4798,0.4796,0.4796,0.4834,0,0,0,0,0,0.4868,0.486,0.4858,0.4844,0.4841,0.4841,0.4836,0.4837,0.4832,0.483,0.4826,0.482,0.4811,0.4804,0.4796,0.4778,0.4776,0.4769,0.4767,0.4765,0.4763,0.4753,0.4749,0.4783,0.4783,0.4783,0,0,0.4859,0.4856,0.4851,0.4842,0.4838,0.4829,0.4839,0.4829,0.4822,0.4828,0.4814,0.4811,0.4804,0.4788,0.478,0.4785,0.4753,0.4763,0.4762,0.4761,0.4751,0.4748,0.4745,0.4782,0.4783,0.4783,0,0,0.4837,0.4835,0.4823,0.482,0.4815,0.4815,0.4812,0.4807,0.4806,0.4792,0.4797,0.4788,0.4772,0.4767,0.4762,0.474,0.4743,0.4737,0.4725,0.4715,0.4712,0.471,0.4701,0.4698,0.4735,0.4735,0.4735,0,0.4826,0.4813,0.4817,0.4806,0.4802,0.4808,0.4796,0.4792,0.4784,0.478,0.4786,0.4766,0.4762,0.4744,0.4739,0.4735,0.4731,0.4737,0.4713,0.471,0.4708,0.4699,0.4696,0.4735,0.4735,0.4735,0.4735,0,0.48,0.4791,0.4782,0.4775,0.4769,0.4758,0.4759,0.4753,0.4755,0.4754,0.474,0.4736,0.4726,0.4722,0.4724,0.4704,0.4707,0.4713,0.4721,0.4704,0.4696,0.4693,0.4733,0.4734,0.4734,0.4734,0,0,0.4769,0.4765,0.4761,0.4758,0.4753,0.4746,0.4735,0.4727,0.4721,0.4716,0.4706,0.4693,0.4698,0.4693,0.4694,0.4685,0.4667,0.4692,0.4692,0.4686,0.4644,0.4639,0.4636,0.467,0.4669,0.4669,0.4645,0,0.4746,0.4728,0.4731,0.4712,0.4703,0.471,0.47,0.4696,0.4695,0.4687,0.4686,0.4676,0.4684,0.4681,0.4673,0.4671,0.4658,0.4673,0.4659,0.4659,0.4659,0.4632,0.4626,0.4604,0.4642,0.4641,0.4641,0,0.4717,0.4711,0.4692,0.4689,0.4686,0.4677,0.4669,0.4662,0.4657,0.4657,0.4652,0.4655,0.4643,0.4654,0.4637,0.4647,0.4642,0.464,0.4639,0.4636,0.4647,0.4627,0.4597,0.4593,0.4636,0.4636,0.4637,0,0.4695,0.4683,0.467,0.4667,0.4663,0.4657,0.4655,0.4651,0.4646,0.4639,0.4636,0.4628,0.4623,0.4616,0.4617,0.4625,0.46,0.461,0.4598,0.4598,0.4591,0.4591,0.4558,0.459,0.459,0.459,0.459,0,0.4669,0.4656,0.466,0.4652,0.4638,0.4642,0.4628,0.4627,0.4623,0.4615,0.462,0.4611,0.4614,0.4605,0.4605,0.4591,0.4589,0.4588,0.4588,0.4586,0.4586,0.4582,0.4583,0.459,0.459,0.459,0.459,0,0.4641,0.4643,0.4629,0.4628,0.4627,0.4617,0.4615,0.4607,0.4607,0.4596,0.4593,0.4593,0.4583,0.4584,0.4572,0.4573,0.4555,0.4557,0.4556,0.4556,0.4544,0.4544,0.4505,0.45,0.4537,0.4536,0.4536,0,0.4624,0.4614,0.4612,0.4607,0.4605,0.4596,0.4592,0.4595,0.459,0.4584,0.4576,0.4567,0.456,0.4544,0.4542,0.4533,0.4535,0.4522,0.4533,0.4532,0.4533,0.4533,0.4532,0.4519,0.4518,0.4518,0.4518,0,0.4591,0.4593,0.4586,0.458,0.4574,0.4569,0.4564,0.456,0.4563,0.4556,0.4547,0.4541,0.453,0.4521,0.4513,0.451,0.4514,0.4515,0.4511,0.4509,0.4508,0.4507,0.4549,0.4515,0.4515,0.4515,0.4516,0.4516,0.4567,0.456,0.4557,0.4549,0.4546,0.4542,0.4534,0.4534,0.4526,0.4518,0.4521,0.451,0.4505,0.4495,0.4492,0.4482,0.4487,0.4482,0.4481,0.4479,0.4477,0.4511,0.4481,0.4481,0.4481,0.4481,0.4481,0,0.4535,0.4533,0.4526,0.452,0.4514,0.452,0.4516,0.4509,0.45,0.4496,0.4489,0.4478,0.4469,0.4468,0.4459,0.4452,0.4453,0.4449,0.4449,0.4448,0.4474,0.4478,0.4448,0.4448,0.4448,0.4448,0.4448,0.4448,0.4517,0.4503,0.4505,0.449,0.4489,0.4479,0.4476,0.4472,0.4469,0.4456,0.4449,0.4449,0.4445,0.4437,0.4429,0.4428,0.4424,0.4419,0.4419,0.4443,0.4446,0.4449,0.4453,0.4418,0.4418,0.4394,0.4393,0.4393]},{"header":{"parameterUnit":"m.s-1","parameterCategory":1,"la1":30.2991,"la2":30.254,"lo1":-89.0895,"lo2":-89.0444,"dy":0.0017,"dx":0.0017,"nx":28,"ny":28,"refTime":"2024-03-11T09:00:00:Z","depth":0,"parameterNumber":3,"parameterNumberName":"V-component_of_WINDS"},"data":[0,0,0,0,0,0,0,0,0,0,0,0,0,0,0,0,0,0,0,0,0,0,0,0,0,0,0,0,0,0,0,0,0,0,0,0,0,0,0,0,0,0,0,0,0,0,0,0,0,0,0,0,0,0,0,0,0,0,-4.0781,-4.0782,0,-4.0922,-4.0924,-4.0926,-4.0871,-4.0868,-4.0864,-4.0861,-4.1007,-4.1013,-4.102,0,0,0,0,0,0,0,0,0,0,0,0,0,-4.0464,-4.047,-4.0781,-4.0783,-4.0784,-4.0922,-4.0924,-4.0926,-4.0871,-4.0867,-4.0863,-4.086,-4.1004,-4.1012,-4.1021,0,0,0,0,0,0,0,0,0,0,0,0,0,-4.0603,-4.0472,-4.078,-4.0774,-4.0774,-4.0922,-4.0924,-4.0927,-4.0872,-4.0867,-4.0862,-4.0858,-4.1002,-4.1012,-4.1022,-4.1184,0,0,-4.1054,-4.1058,0,0,0,0,0,0,0,0,-4.0595,-4.0615,-4.0773,-4.0774,-4.0776,-4.0874,-4.0866,-4.1013,-4.0874,-4.0835,-4.0861,-4.0855,-4.0966,-4.0979,-4.1017,-4.1191,-4.1197,-4.1055,-4.1061,-4.1065,-4.1068,0,0,0,0,0,0,0,-4.0586,-4.0608,-4.0837,-4.0775,-4.0777,-4.0764,-4.0778,-4.0893,-4.0927,-4.0838,-4.0835,-4.0852,-4.0966,-4.1007,-4.102,-4.12,-4.1054,-4.1064,-4.107,-4.1074,-4.1516,-4.1521,0,0,0,0,0,0,-4.0576,-4.0601,-4.0832,-4.0841,-4.0671,-4.0774,-4.079,-4.0847,-4.0925,-4.0932,-4.0856,-4.0849,-4.0992,-4.1008,-4.1025,-4.1222,-4.1065,-4.1075,-4.1081,-4.1511,-4.1517,-4.1523,0,0,0,0,0,0,-4.0569,-4.0597,-4.0827,-4.072,-4.0748,-4.0784,-4.085,-4.0853,-4.0893,-4.0939,-4.0944,-4.0892,-4.0988,-4.101,-4.1146,-4.1226,-4.108,-4.1089,-4.1504,-4.1513,-4.152,-4.1616,0,0,0,0,0,0,-4.056,-4.0595,-4.0657,-4.0722,-4.0754,-4.0945,-4.0854,-4.0859,-4.0911,-4.0903,-4.0974,-4.0981,-4.0986,-4.113,-4.1156,-4.1238,-4.1097,-4.1497,-4.1508,-4.1518,-4.1606,-4.1627,-4.1644,0,0,0,0,0,-4.0549,-4.0678,-4.066,-4.0688,-4.0832,-4.095,-4.0968,-4.0972,-4.0918,-4.0981,-4.101,-4.0978,-4.1213,-4.1145,-4.1173,-4.1259,-4.1492,-4.1505,-4.1517,-4.1597,-4.1623,-4.1644,0,0,0,0,0,0,-4.0621,-4.0686,-4.0667,-4.0821,-4.088,-4.094,-4.102,-4.0999,-4.1075,-4.1064,-4.1065,-4.1082,-4.1222,-4.1253,-4.1177,-4.1421,-4.1344,-4.1363,-4.1396,-4.142,-4.1439,-4.1429,-4.1106,0,0,0,0,0,-4.0655,-4.0745,-4.0796,-4.0927,-4.0958,-4.0984,-4.1035,-4.1033,-4.1095,-4.112,-4.1159,-4.122,-4.1307,-4.1365,-4.1448,-4.1609,-4.1625,-4.1683,-4.1702,-4.1717,-4.1734,-4.1823,-4.185,-4.1564,-4.1564,-4.1564,0,0,-4.0725,-4.0772,-4.0829,-4.0943,-4.0988,-4.1082,-4.1005,-4.1107,-4.1177,-4.1135,-4.1266,-4.1297,-4.1365,-4.1515,-4.1583,-4.1546,-4.1816,-4.1733,-4.1745,-4.1754,-4.1839,-4.1866,-4.189,-4.1572,-4.1571,-4.157,0,0,-4.0902,-4.0946,-4.106,-4.1108,-4.1178,-4.1195,-4.1223,-4.1286,-4.1305,-4.1437,-4.1408,-4.149,-4.164,-4.1691,-4.1736,-4.1933,-4.1907,-4.196,-4.2061,-4.2148,-4.2171,-4.2191,-4.2263,-4.2288,-4.1976,-4.1976,-4.1976,0,-4.0982,-4.1121,-4.1122,-4.1227,-4.1279,-4.1245,-4.1361,-4.1407,-4.1501,-4.1538,-4.1494,-4.1683,-4.1727,-4.1889,-4.1937,-4.1974,-4.2006,-4.1953,-4.2167,-4.2187,-4.2206,-4.2275,-4.2302,-4.1982,-4.1982,-4.1981,-4.198,0,-4.1216,-4.1314,-4.1397,-4.149,-4.155,-4.166,-4.1678,-4.174,-4.1732,-4.1754,-4.1888,-4.1939,-4.2033,-4.207,-4.2064,-4.2232,-4.2207,-4.2166,-4.2089,-4.224,-4.2304,-4.233,-4.1991,-4.1989,-4.1987,-4.1986,0,0,-4.1444,-4.1535,-4.1566,-4.1608,-4.1683,-4.1759,-4.1867,-4.1959,-4.2012,-4.2078,-4.217,-4.2298,-4.2261,-4.2313,-4.2311,-4.2388,-4.2543,-4.2337,-4.2339,-4.2375,-4.2733,-4.2765,-4.2796,-4.2525,-4.253,-4.2534,-4.2728,0,-4.1628,-4.1819,-4.1823,-4.1999,-4.209,-4.2059,-4.2154,-4.2211,-4.2233,-4.2314,-4.2339,-4.2431,-4.2373,-4.2404,-4.2478,-4.2508,-4.2615,-4.2494,-4.2612,-4.2616,-4.2598,-4.2829,-4.2864,-4.3044,-4.2753,-4.2757,-4.2761,0,-4.1869,-4.1943,-4.2128,-4.2192,-4.223,-4.2315,-4.24,-4.2477,-4.2541,-4.2552,-4.261,-4.2598,-4.271,-4.2628,-4.2783,-4.27,-4.2748,-4.2771,-4.2778,-4.279,-4.2699,-4.285,-4.3102,-4.313,-4.28,-4.2797,-4.2794,0,-4.2019,-4.2165,-4.2295,-4.2331,-4.2408,-4.2469,-4.2504,-4.2563,-4.2618,-4.2692,-4.2728,-4.2814,-4.2861,-4.2928,-4.2939,-4.2879,-4.3095,-4.3014,-4.3109,-4.3109,-4.3158,-4.3155,-4.3423,-4.3186,-4.3185,-4.3185,-4.3184,0,-4.2226,-4.2341,-4.2363,-4.2444,-4.2572,-4.2575,-4.2702,-4.2731,-4.2785,-4.287,-4.2848,-4.2929,-4.2938,-4.3022,-4.3031,-4.3159,-4.318,-4.3193,-4.3195,-4.3197,-4.3195,-4.323,-4.3218,-4.3192,-4.319,-4.3189,-4.3188,0,-4.2415,-4.2435,-4.2575,-4.2636,-4.2654,-4.2746,-4.2799,-4.2876,-4.2896,-4.3005,-4.3031,-4.3063,-4.3161,-4.3178,-4.3293,-4.3299,-4.3453,-4.344,-4.3432,-4.3431,-4.3526,-4.3517,-4.3827,-4.3868,-4.3602,-4.3604,-4.3606,0,-4.2547,-4.2635,-4.2706,-4.2762,-4.28,-4.289,-4.2947,-4.2953,-4.3013,-4.3093,-4.3161,-4.3256,-4.3333,-4.349,-4.3524,-4.3612,-4.3603,-4.3705,-4.3616,-4.3616,-4.3607,-4.3603,-4.3612,-4.3723,-4.3726,-4.3728,-4.373,0,-4.278,-4.2785,-4.2867,-4.2954,-4.3021,-4.309,-4.3154,-4.3201,-4.3216,-4.3284,-4.3384,-4.3444,-4.3561,-4.3657,-4.3745,-4.3781,-4.376,-4.3758,-4.3785,-4.3789,-4.3781,-4.3789,-4.3481,-4.3751,-4.3749,-4.3748,-4.3746,-4.3746,-4.2946,-4.3023,-4.3086,-4.3178,-4.3227,-4.3288,-4.3364,-4.3394,-4.3477,-4.3574,-4.3572,-4.3683,-4.3745,-4.3861,-4.3902,-4.3989,-4.3956,-4.3995,-4.4005,-4.4015,-4.4025,-4.3766,-4.4004,-4.4004,-4.4003,-4.4003,-4.4002,0,-4.3179,-4.3218,-4.3303,-4.3394,-4.3467,-4.3439,-4.3509,-4.3573,-4.367,-4.373,-4.3806,-4.3921,-4.4014,-4.4055,-4.4147,-4.4208,-4.4201,-4.4232,-4.4229,-4.4238,-4.4048,-4.4016,-4.4237,-4.4237,-4.4237,-4.4236,-4.4236,-4.4236,-4.3309,-4.3439,-4.3452,-4.3606,-4.3644,-4.3752,-4.3795,-4.3851,-4.3899,-4.4029,-4.4106,-4.4132,-4.4185,-4.428,-4.4364,-4.4374,-4.441,-4.4446,-4.4452,-4.4274,-4.4251,-4.4228,-4.4199,-4.4454,-4.4454,-4.4635,-4.4636,-4.4637]}]]